Theta_e
310 310 310 309 309 309 309 308 310 310 311 311 312 312 312 312 311 311 311 311 313 313 312 311 311 312 309 301 298 305 316 315 314 318 309 307 308 307 304 307 309 309 311 314 315 315 315
308 308 309 308 308 308 307 308 309 309 310 310 310 311 311 312 310 311 310 311 312 312 312 311 311 311 302 291 308 310 310 309 304 309 310 307 309 311 308 307 306 309 310 311 313 313 313
308 308 308 307 307 307 307 307 308 308 309 310 310 311 311 311 310 310 310 311 312 311 312 312 312 307 300 295 308 310 309 307 306 304 303 310 309 307 307 305 310 309 305 308 309 310 310
307 308 308 308 308 307 307 308 309 309 310 310 311 311 311 311 311 310 311 312 311 311 312 313 313 305 295 306 310 307 309 307 309 309 305 306 310 306 304 306 303 301 301 297 303 305 306
308 307 307 307 307 306 308 308 308 309 309 310 311 311 311 311 311 311 311 311 311 311 311 311 306 301 293 307 302 307 309 303 306 307 306 306 306 304 303 299 297 298 295 296 299 304 304
307 307 308 307 307 308 308 308 308 309 309 310 311 311 310 310 310 310 311 310 309 308 307 307 305 295 297 296 304 305 309 307 303 303 301 300 301 299 299 296 290 293 293 296 296 301 302
309 309 309 308 308 308 308 307 307 308 308 309 310 310 310 309 309 310 307 302 300 297 299 296 295 295 297 302 305 301 305 304 303 298 294 297 294 293 296 297 298 299 297 296 300 302 300
307 307 307 307 308 308 308 308 308 309 309 310 310 310 310 310 309 308 304 297 297 298 291 298 297 298 301 302 295 299 304 297 296 291 295 293 290 297 300 298 296 296 295 296 299 301 300
306 307 307 308 308 308 308 309 309 309 310 310 310 310 310 310 310 303 300 299 304 304 291 294 297 296 298 300 295 296 300 298 294 292 292 292 295 297 296 297 294 295 294 295 295 299 301
307 307 308 308 309 309 308 308 308 309 309 310 310 310 310 309 302 301 298 303 305 304 286 288 292 296 299 299 293 301 301 298 295 291 293 293 298 295 294 294 296 292 298 297 296 294 291
307 307 308 309 309 309 308 308 309 309 309 309 309 309 309 307 301 297 300 305 305 300 273 289 294 304 300 295 296 298 303 298 293 293 293 291 293 293 292 293 298 295 299 297 296 295 295
306 306 307 308 308 308 309 308 308 309 309 309 309 309 308 304 303 302 305 304 300 284 273 286 292 291 291 294 294 297 297 299 299 295 295 295 298 297 296 297 299 300 299 298 298 296 289
307 307 306 308 308 308 309 308 309 309 309 309 308 308 306 304 297 304 304 299 282 276 287 285 287 290 289 289 291 291 292 291 289 287 289 293 293 296 297 295 298 299 296 289 287 287 286
307 307 308 308 308 309 308 308 308 309 309 309 308 306 303 304 305 305 300 289 275 281 283 290 288 288 285 289 287 288 289 290 293 292 291 288 286 294 297 295 294 296 296 290 283 285 289
306 307 307 308 309 308 308 308 308 308 308 308 305 302 301 303 303 304 293 279 279 283 287 286 287 283 284 287 286 286 287 288 293 293 287 289 289 298 298 299 299 295 293 299 292 294 291
306 306 307 308 308 308 308 308 308 308 308 306 299 297 297 302 304 300 289 281 283 288 289 288 281 285 281 284 284 284 284 289 288 293 295 292 288 296 297 299 299 298 300 291 293 285 284
306 306 306 307 308 308 308 308 308 308 307 304 296 293 298 306 303 292 284 284 287 291 291 286 284 283 284 283 285 284 284 288 291 291 294 294 292 293 296 294 293 294 294 295 296 293 287
306 306 305 306 306 307 307 307 308 308 306 302 294 289 299 304 290 288 284 287 290 289 292 289 289 287 285 285 284 285 284 287 292 292 288 293 293 289 292 298 300 298 296 296 290 289 293
305 305 305 305 305 305 305 306 307 307 306 300 290 289 300 302 283 284 287 286 289 288 288 288 287 288 289 286 283 287 288 293 293 291 288 292 291 287 289 294 298 295 296 298 297 297 291
305 305 306 305 305 305 304 305 306 306 306 300 293 285 292 294 292 286 284 284 285 291 289 290 289 290 288 286 289 286 287 291 293 292 295 295 289 288 287 291 294 292 294 296 296 291 291
305 305 305 305 305 305 305 304 306 306 305 299 292 287 289 283 287 287 286 285 284 284 289 290 288 288 287 284 286 286 288 290 293 294 294 292 285 288 290 291 292 293 294 294 293 294 291
304 304 305 305 304 305 304 304 305 305 303 297 290 290 292 288 288 286 286 284 284 286 287 285 286 288 288 285 286 284 288 288 289 292 292 293 287 289 289 292 293 292 295 295 295 296 296
305 304 304 304 304 304 305 305 305 306 303 294 293 295 292 288 286 285 285 286 286 288 290 290 289 287 286 289 292 293 293 293 292 290 290 290 289 287 287 290 292 289 294 295 296 297 297
304 304 304 304 305 304 305 306 306 306 305 300 298 295 289 284 286 286 287 288 288 288 286 288 291 288 292 296 296 296 294 293 292 293 294 289 288 288 286 290 283 295 301 300 298 298 300
304 304 304 304 305 305 305 306 307 307 306 301 301 295 291 284 288 287 287 287 289 290 289 290 292 294 296 294 288 286 287 288 290 291 292 294 290 287 285 288 292 296 297 296 297 297 301
303 303 303 304 304 305 304 305 307 307 307 303 302 301 295 287 287 290 287 288 286 287 288 291 296 298 295 290 288 281 280 284 284 288 293 293 293 287 287 284 285 293 298 301 301 294 300
303 303 303 303 304 305 304 306 306 307 308 305 301 301 296 289 292 292 288 287 291 289 287 289 292 292 293 288 285 283 283 288 283 285 285 286 287 284 286 286 291 297 299 301 293 293 301
303 303 303 304 304 304 304 306 306 307 308 306 302 302 297 292 292 294 294 291 292 291 287 291 289 292 290 285 285 285 285 288 287 289 288 287 285 285 287 286 286 301 298 294 297 301 301
303 303 303 303 304 304 304 305 306 307 308 307 300 302 302 294 292 299 297 298 297 296 292 292 291 291 293 287 288 287 286 287 287 284 293 286 291 288 290 290 297 299 299 302 301 301 302
Wind_Speed
15 16 16 16 16 16 17 17 16 16 17 17 18 18 17 17 17 18 17 18 17 15 13 13 12 11 6 5 10 3 14 12 6 7 15 18 20 20 19 15 19 19 21 19 20 22 20
16 16 16 17 17 17 17 17 17 17 18 18 17 18 18 18 19 19 18 17 17 17 16 14 11 11 5 14 8 10 11 10 4 5 8 15 9 14 13 14 21 10 23 24 20 18 20
16 17 17 17 17 17 18 18 19 18 18 17 17 17 18 18 19 20 19 19 17 19 19 17 11 9 13 23 9 9 17 5 3 2 12 13 15 6 3 8 15 14 16 14 13 18 14
17 17 17 18 18 18 19 19 19 19 19 18 17 17 18 19 19 20 21 20 21 23 21 17 11 8 11 10 11 17 16 11 12 15 8 10 13 14 9 4 2 11 9 17 13 19 12
15 15 15 16 16 17 18 19 20 20 20 20 19 18 19 19 19 20 21 21 25 16 9 4 5 6 12 6 8 12 15 14 9 13 12 7 10 10 7 15 9 9 16 18 14 10 4
16 17 17 17 19 18 17 17 19 19 20 21 19 18 19 20 20 20 19 23 15 2 5 6 2 4 6 3 3 9 6 15 10 12 9 11 9 12 15 18 25 16 11 11 12 10 18
18 19 20 19 19 20 20 20 20 20 20 20 21 19 19 20 20 19 14 4 2 2 2 8 6 8 16 9 10 7 3 5 9 15 17 21 13 27 31 28 19 18 19 23 18 14 13
18 19 19 19 20 19 20 20 21 21 21 21 22 22 21 18 19 14 5 3 4 2 12 15 23 23 24 12 10 13 9 9 11 17 19 13 31 31 20 21 24 24 22 20 15 12 10
18 18 17 19 20 20 21 21 21 21 20 20 20 21 20 18 18 2 6 3 4 6 6 15 10 10 10 10 14 20 13 10 11 19 28 25 37 21 21 24 25 26 28 22 21 9 11
16 17 18 19 18 19 21 22 22 22 22 21 20 19 18 18 1 6 6 2 6 2 5 7 4 6 6 6 7 15 18 15 12 21 21 24 26 20 25 29 22 27 23 21 21 11 15
17 18 18 18 18 19 21 22 22 22 21 20 19 19 16 10 8 4 4 6 9 4 6 3 3 1 1 5 11 3 14 19 24 11 17 18 16 25 28 27 25 19 17 17 20 17 17
18 18 19 19 20 20 20 20 22 22 21 21 20 21 17 5 2 8 6 8 2 4 8 2 3 8 10 3 11 8 2 18 15 16 21 18 10 25 30 19 23 12 12 16 12 11 14
18 19 19 19 20 20 20 20 21 22 21 22 23 23 11 3 3 1 4 3 3 6 8 1 6 10 12 9 8 19 15 12 13 19 19 16 15 4 13 19 21 20 14 7 7 8 10
19 19 19 19 20 20 21 21 22 22 22 22 23 15 3 3 2 3 3 1 6 2 7 14 11 15 11 9 6 18 16 10 19 17 8 14 12 20 18 18 18 26 21 9 10 8 9
20 20 21 21 21 21 21 22 22 23 22 22 15 3 2 2 4 2 2 3 3 3 6 11 13 8 3 6 7 6 10 8 10 15 9 12 17 15 18 16 23 24 21 14 3 1 5
21 21 22 22 21 22 22 22 23 24 23 19 4 3 4 8 2 3 2 3 4 8 14 9 7 6 7 7 7 3 2 2 11 14 12 7 8 14 21 23 25 19 19 12 10 11 9
20 21 22 21 21 21 21 22 22 23 22 14 3 2 5 5 1 2 3 4 6 9 10 5 5 7 8 9 9 6 4 5 5 15 14 9 7 12 20 25 24 13 23 8 9 5 6
21 21 22 23 22 21 21 21 22 21 18 5 4 1 3 1 1 1 4 9 8 9 7 6 5 9 12 11 10 5 7 5 3 6 8 7 7 6 25 11 22 20 20 21 11 11 5
20 21 22 23 23 23 21 20 21 22 15 4 5 3 1 2 3 4 7 8 6 8 9 5 5 6 6 5 5 7 7 2 7 4 3 7 6 10 12 9 17 27 22 22 8 3 17
21 21 21 21 22 21 21 20 20 20 14 1 2 4 3 3 2 5 8 5 7 9 5 7 11 8 7 6 5 5 8 3 8 2 6 5 5 8 6 6 4 24 25 21 19 10 10
22 22 22 21 22 21 20 21 20 18 13 0 3 3 1 5 3 10 6 5 9 8 5 7 5 3 9 6 11 1 3 6 4 3 2 1 4 5 13 13 9 3 24 22 24 19 15
22 22 22 22 22 21 20 19 18 17 10 2 2 3 1 5 7 9 4 4 9 9 7 8 6 14 14 10 12 17 9 3 3 1 2 3 0 7 10 8 9 8 8 23 23 22 14
21 21 22 22 22 21 19 18 16 15 6 1 1 3 3 6 3 5 3 4 8 16 9 9 13 16 15 11 6 10 14 14 13 4 3 4 3 4 15 4 4 9 13 11 17 23 20
22 22 23 22 21 20 20 19 16 14 8 1 1 1 3 5 5 8 11 16 13 10 10 15 14 7 4 12 17 16 18 18 15 14 10 4 5 3 3 2 9 4 12 13 13 5 15
23 22 23 23 22 20 20 19 17 13 10 2 1 2 2 6 8 12 10 14 14 13 11 11 8 7 11 8 5 5 3 4 10 18 16 13 5 3 3 6 2 4 11 6 4 6 11
25 24 23 23 22 22 22 20 18 14 12 1 3 1 3 5 3 4 13 11 7 7 7 7 8 7 6 2 3 3 3 3 1 3 11 11 11 4 2 4 11 7 13 5 2 7 13
24 24 24 24 24 23 23 19 19 14 11 2 3 4 2 4 8 3 5 7 5 5 5 7 8 4 4 2 3 3 3 4 3 3 5 6 4 10 6 3 1 15 13 3 10 5 14
23 24 23 23 23 22 22 20 18 17 12 2 2 5 3 4 12 9 5 7 8 6 4 7 7 1 2 2 3 3 3 2 3 2 2 2 5 4 4 5 4 17 4 4 7 9 12
22 24 24 23 23 22 21 21 18 16 10 3 3 3 3 4 9 13 17 20 21 21 8 3 4 6 3 3 2 3 2 3 5 0 2 1 3 1 3 4 9 9 0 8 7 10 12
Wind_Direction
16 12 10 6 3 2 1 354 351 348 350 349 347 343 340 337 335 330 324 321 317 309 307 307 308 316 324 236 242 305 356 7 51 150 203 203 200 202 214 214 220 227 236 238 251 265 265
8 8 7 4 360 356 355 351 348 349 348 344 342 340 338 334 332 327 324 319 313 311 301 300 297 300 262 248 238 304 339 344 275 203 193 212 215 222 247 228 218 222 235 242 246 257 261
8 6 3 2 360 357 354 348 346 348 344 341 339 336 335 333 330 328 322 315 314 302 298 292 281 274 252 246 270 286 298 273 321 355 229 215 233 246 284 239 240 240 244 229 233 240 252
6 3 360 356 359 354 351 347 345 343 341 339 337 334 332 331 329 326 319 315 309 304 292 275 250 253 257 245 264 269 267 281 242 243 250 243 235 245 237 316 230 216 225 234 228 232 241
4 5 358 2 357 355 349 343 343 340 339 337 336 336 334 330 328 324 319 315 308 308 301 210 162 210 265 291 256 255 239 247 239 209 223 249 205 218 204 230 251 214 238 224 230 189 169
8 7 3 1 358 354 346 343 340 338 337 336 335 336 334 332 329 325 320 313 306 185 102 146 204 228 246 302 233 293 226 223 229 172 186 204 195 207 210 206 218 219 233 227 225 212 234
6 4 4 360 354 351 346 342 339 337 336 334 333 335 331 332 328 330 327 333 266 199 310 258 255 265 292 264 278 256 194 162 210 192 187 187 197 217 210 214 229 246 239 238 231 219 244
7 4 1 358 353 348 344 341 339 336 333 331 330 329 328 325 325 334 338 32 75 329 295 257 248 245 251 267 298 256 214 205 194 207 186 171 222 219 217 219 224 231 243 240 247 245 254
6 360 357 357 350 347 344 341 341 339 332 329 324 323 324 326 320 69 313 261 15 340 257 283 235 244 241 223 235 271 193 207 213 209 197 198 225 209 206 214 216 225 232 237 247 265 256
2 357 357 355 348 346 344 341 342 338 336 332 327 327 327 333 340 325 302 221 329 280 287 269 215 240 194 219 233 238 222 208 217 216 206 232 227 205 203 217 206 231 223 242 246 245 257
0 359 355 350 348 346 342 340 339 337 333 329 328 325 321 330 297 282 311 325 322 204 294 101 154 127 180 201 324 323 211 216 227 194 193 218 205 199 207 210 200 236 218 223 230 234 260
0 0 354 349 350 344 340 339 338 337 333 330 327 325 325 292 236 265 302 314 236 211 243 297 76 352 350 38 5 321 284 232 228 244 226 231 212 197 214 196 200 196 232 215 225 235 242
358 355 352 348 346 342 340 339 337 335 333 332 329 326 322 293 300 64 353 282 181 241 332 65 352 336 323 353 20 347 337 207 215 201 223 216 224 205 191 186 195 193 182 172 202 211 249
358 353 348 346 344 342 342 340 336 333 332 333 328 326 319 256 269 253 274 172 228 246 285 324 342 322 294 25 36 326 344 341 215 242 235 208 190 209 189 198 185 191 189 190 192 203 225
357 351 349 346 341 343 343 340 338 336 335 332 325 352 5 342 277 178 224 207 278 304 349 333 328 307 319 11 344 39 339 304 8 231 273 216 226 181 187 186 169 192 207 195 226 14 254
351 350 347 343 341 342 344 341 341 341 343 340 342 343 351 341 123 177 247 268 252 293 317 311 298 299 307 344 329 19 71 312 326 349 345 284 250 216 185 191 199 189 168 189 215 214 231
346 345 344 341 340 341 343 344 342 343 345 338 26 17 15 70 341 24 313 289 289 288 313 295 294 286 281 302 315 315 219 303 18 333 326 276 276 181 176 200 182 180 188 189 194 221 218
343 343 343 343 342 342 342 344 343 345 344 357 9 9 1 314 339 4 325 318 308 297 326 283 275 303 261 278 291 266 223 219 131 37 341 300 294 256 205 187 200 193 190 188 198 189 181
344 344 344 344 343 344 343 343 344 346 2 324 348 288 332 282 22 344 326 311 271 306 324 307 295 271 301 297 292 279 295 149 153 123 11 328 224 230 163 185 201 203 199 201 206 174 206
343 344 342 342 344 343 342 342 341 344 354 349 326 339 339 18 349 348 332 318 316 313 299 325 282 295 304 288 274 282 287 309 197 133 209 288 261 273 206 125 279 199 198 200 200 205 190
344 345 343 341 342 341 341 343 336 339 346 334 17 34 37 319 336 322 302 308 310 330 325 319 302 8 357 306 313 222 310 294 247 191 293 33 271 298 291 278 286 266 200 195 201 210 214
343 345 344 342 342 338 339 341 334 342 349 33 6 336 242 283 295 306 310 299 309 320 304 313 285 325 321 290 287 303 303 313 352 160 310 224 276 333 262 225 247 258 220 214 205 204 217
340 343 343 343 343 340 335 332 323 330 358 2 190 257 263 278 297 290 280 313 307 314 291 255 311 309 303 304 313 293 285 272 271 251 289 316 329 318 222 44 301 256 221 201 215 221 224
342 343 344 344 342 340 334 326 324 321 346 225 219 252 285 293 296 309 300 300 307 305 289 296 298 276 282 316 298 268 256 258 248 230 242 257 299 283 276 249 224 67 35 198 202 218 229
341 343 344 343 340 337 335 326 326 325 328 218 171 232 253 277 300 300 319 321 310 305 286 282 288 260 314 296 277 280 235 228 235 228 219 222 249 278 240 218 351 56 26 346 246 131 16
337 340 343 341 340 340 339 332 325 329 330 148 246 200 286 304 273 300 309 294 305 314 313 277 306 304 297 265 275 282 280 296 271 105 197 207 223 291 267 214 210 30 341 350 201 172 3
332 335 338 339 338 342 341 336 326 321 315 217 234 189 220 266 278 257 286 313 288 284 280 294 342 317 342 292 256 242 253 285 261 162 157 181 195 220 235 277 94 353 333 198 193 35 338
329 330 333 334 334 338 340 336 325 314 312 238 254 191 196 262 286 267 264 250 276 267 283 315 313 139 264 296 296 298 272 356 296 63 80 142 161 184 216 229 167 2 5 71 352 327 331
326 328 330 332 331 332 338 335 328 314 313 255 243 159 180 239 272 294 276 263 253 253 269 255 287 294 322 326 307 279 328 332 344 192 11 194 344 83 313 24 341 342 92 33 357 336 337